Location: Carnières
(50.1682°N, 3.3474°E)
Time: 04:30:06
(UTC+00:00)

SL-16 R/B - Pass Details

Date: 06 August 2024
Orbit: 842 x 845 km, 71.0° (Epoch: 16 September)

Event Time Altitude Azimuth Distance (km) Brightness Sun altitude
Exits shadow 00:12:24 32° 126° (SE) 1,413 3.1 -23.1°
Maximum altitude 00:13:20 34° 106° (ESE) 1,361 3.1 -23.1°
Drops below altitude 10° 00:18:22 10° 44° (NE) 2,473 5.3 -23.0°
Sets 00:21:01 0° 35° (NE) 3,413 6.4 -22.9°
